Location: Feigenhofen
(48.4939°N, 10.7793°E)
Time: 16:15:57
(UTC+00:00)

Cosmos 1603 - Pass Details

Date: 26 May 2022
Orbit: 829 x 861 km, 71.0° (Epoch: 28 June)

Event Time Altitude Azimuth Distance (km) Brightness Sun altitude
Exits shadow 02:19:32 - 191° (SSW) 2,765 5.9 -9.0°
Reaches altitude 10° 02:20:24 10° 190° (S) 2,441 5.6 -8.9°
Maximum altitude 02:25:53 59° 112° (ESE) 966 4.2 -8.3°
Drops below altitude 10° 02:31:28 10° 34° (NE) 2,478 7.7 -7.6°
Sets 02:33:57 0° 31° (NNE) 3,422 8.7 -7.3°
